Location: St Paul
(33.4390°N, 83.7350°W)
Time: 21:38:45
(UTC-05:00)

Cosmos 1538 Rocket - Pass Details

Date: 06 October 2017
Orbit: 752 x 793 km, 74.0° (Epoch: 15 December)

Event Time Altitude Azimuth Distance (km) Brightness Sun altitude
Rises 19:35:03 0° 196° (SSW) 3,237 7.5 -5.6°
Reaches altitude 10° 19:37:25 10° 196° (SSW) 2,307 6.7 -6.1°
Maximum altitude 19:42:40 89° 283° (WNW) 770 4.1 -7.1°
Drops below altitude 10° 19:47:53 10° 16° (NNE) 2,294 6.3 -8.2°
Sets 19:50:15 0° 17° (NNE) 3,218 7.0 -8.7°
